Vorticity
8 7 7 6 5 5 4 4 3 3 3 3 3 4 4 4 4 6 7 8 5 8 9 12 7 6 5 6 7 6 6 8 8 10 11 12 13 13 13 14 15 16 18 19 18 16 16
7 7 6 6 6 5 4 4 3 3 4 4 4 4 4 6 8 8 9 7 7 6 12 9 7 4 5 9 8 10 9 9 11 12 13 16 14 13 12 11 11 11 10 10 10 11 11
7 7 6 6 6 5 4 4 4 3 4 4 5 6 9 10 9 8 12 4 7 5 11 7 5 3 7 8 10 13 12 11 12 12 11 9 7 8 8 10 9 10 7 6 7 4 3
8 7 6 6 6 5 4 4 4 4 4 6 8 9 8 9 9 10 9 2 14 5 6 8 6 6 9 9 12 13 11 12 14 11 5 4 5 7 6 6 5 3 4 3 3 3 3
8 7 6 6 6 6 5 5 6 7 7 8 8 9 8 8 9 12 8 3 16 4 6 8 5 9 5 7 10 11 14 12 7 4 6 5 4 7 7 5 5 4 6 6 6 6 6
8 8 7 6 5 6 6 6 6 6 7 7 8 10 11 8 8 9 7 6 16 5 8 6 6 4 6 6 8 8 9 6 5 7 5 4 7 7 6 6 6 6 6 6 6 6 7
7 8 7 7 6 6 6 6 7 7 7 8 9 10 8 4 8 6 7 12 14 5 8 7 5 6 4 5 8 8 9 7 6 6 7 6 6 7 6 6 6 6 5 5 6 6 6
7 6 7 7 7 6 6 7 7 7 8 9 10 10 6 5 6 9 10 12 13 7 8 8 5 5 2 4 6 8 11 7 7 8 8 8 9 8 6 6 5 5 5 6 6 6 3
9 7 6 7 8 7 7 7 8 8 8 9 9 8 6 6 5 9 10 9 11 7 9 7 7 3 4 4 5 4 5 5 4 3 5 6 8 7 6 5 5 5 4 4 4 4 6
9 9 7 7 8 8 7 8 8 7 7 9 9 8 7 7 5 7 9 10 8 8 11 5 8 7 3 5 4 3 2 2 1 2 3 4 4 6 7 7 6 5 4 5 4 4 5
6 8 8 8 8 9 7 7 7 6 7 8 8 7 6 5 6 8 8 8 11 7 6 9 9 9 7 5 5 1 2 3 1 3 3 4 3 4 4 6 7 6 5 5 5 4 4
5 5 7 8 8 8 8 7 7 6 8 8 6 5 5 6 6 7 9 10 10 10 9 4 4 6 9 6 6 1 5 6 2 4 4 4 6 4 5 4 7 6 5 5 5 5 6
7 5 5 6 7 7 8 8 7 7 7 7 5 5 5 5 6 6 7 9 12 13 10 9 10 10 9 8 5 9 6 3 3 6 4 7 6 5 6 6 5 6 5 6 8 6 4
9 7 6 5 6 7 8 9 8 7 6 7 7 8 9 9 9 8 7 8 8 10 9 10 9 9 8 8 6 5 5 7 6 6 6 6 8 6 8 5 5 5 4 3 5 5 4
9 8 7 6 6 7 7 7 7 7 6 7 7 8 8 9 9 7 6 6 6 8 8 9 10 9 10 9 7 7 7 7 7 7 8 8 6 6 4 5 6 5 4 3 5 4 5
7 8 9 7 6 6 6 7 7 6 6 6 6 7 7 8 9 7 7 6 6 6 7 7 8 8 8 7 7 8 8 9 8 8 8 7 8 8 6 4 4 4 3 4 6 4 3
3 7 8 7 7 6 6 6 6 7 7 8 8 7 7 7 7 8 6 5 5 4 4 5 5 6 7 7 8 8 8 9 9 9 7 6 5 4 5 5 3 5 5 6 4 3 2
18 -2 4 6 8 6 5 5 5 6 7 9 10 11 9 8 8 7 7 7 7 6 5 4 4 4 4 4 4 4 5 6 7 5 4 5 2 3 4 6 4 3 4 3 4 6 5
7 5 6 7 9 8 7 7 8 8 9 9 9 10 10 9 7 6 6 6 6 7 6 7 6 6 6 5 5 4 4 3 2 2 2 3 1 1 2 4 5 4 5 6 2 2 6
12 14 6 8 -6 7 8 11 11 10 8 8 10 9 7 7 7 7 7 7 7 7 7 7 6 6 7 7 7 5 5 4 5 5 5 4 4 5 6 5 5 6 2 2 3 2 6
7 12 12 16 21 10 5 6 3 2 -1 4 -1 1 8 9 10 9 9 9 9 10 10 10 10 9 9 10 8 8 8 7 7 7 8 6 5 5 4 2 2 2 2 5 10 16 12
-4 1 10 6 9 9 9 12 21 15 7 5 1 9 4 5 10 5 5 9 11 12 9 10 7 1 -0 1 3 3 2 3 5 5 6 7 8 8 11 9 9 14 18 18 16 12 5
8 2 3 2 4 5 13 8 16 15 13 12 5 10 11 18 14 6 6 7 -0 -4 -7 1 3 6 16 21 17 16 18 18 16 15 17 17 17 16 9 10 7 3 10 8 9 10 11
9 3 -0 5 9 7 4 8 10 6 10 11 20 17 16 17 21 22 13 21 14 23 16 14 22 15 8 6 7 8 8 8 7 9 10 11 11 8 8 10 3 13 11 13 11 8 14
7 -5 11 0 6 8 7 6 5 11 15 14 18 18 20 17 15 14 17 15 14 14 13 8 9 8 7 8 10 9 9 8 9 8 10 13 13 16 10 9 8 7 10 6 7 7 15
12 13 17 15 11 11 15 14 22 19 15 15 13 10 11 8 10 9 11 9 10 10 12 12 12 14 13 11 13 13 13 13 14 11 7 10 14 12 18 16 14 17 15 15 13 17 29
16 16 11 19 15 17 15 17 18 15 14 13 11 11 11 14 12 13 13 13 14 14 15 15 14 17 12 14 14 14 14 13 11 12 11 12 11 12 14 13 12 17 21 19 30 17 11
18 14 14 16 17 13 9 9 10 9 11 11 10 10 10 11 10 12 11 12 16 10 7 10 11 15 14 14 14 12 13 15 15 13 15 14 18 15 14 14 15 19 20 21 20 20 18
18 16 12 11 10 10 10 8 9 9 8 8 9 8 8 8 7 7 15 8 7 10 8 10 8 10 12 12 14 11 13 7 14 14 14 20 19 16 19 16 20 19 21 22 21 22 22
Height
5800 5802 5804 5806 5808 5811 5813 5814 5816 5817 5817 5818 5818 5818 5818 5817 5817 5816 5815 5814 5814 5813 5812 5810 5808 5807 5805 5803 5801 5799 5797 5796 5795 5794 5793 5792 5791 5791 5790 5790 5789 5789 5789 5788 5788 5787 5787
5798 5800 5802 5805 5807 5809 5810 5812 5814 5813 5814 5815 5815 5815 5815 5814 5814 5812 5811 5812 5811 5810 5809 5808 5806 5804 5803 5801 5798 5796 5795 5794 5793 5791 5790 5790 5789 5789 5788 5787 5787 5787 5787 5786 5786 5785 5784
5795 5797 5800 5802 5804 5806 5808 5809 5810 5811 5811 5811 5811 5812 5812 5811 5810 5809 5809 5809 5808 5807 5806 5805 5804 5802 5800 5799 5796 5794 5792 5791 5791 5790 5790 5789 5788 5788 5787 5786 5786 5786 5786 5785 5784 5783 5782
5793 5795 5797 5799 5801 5803 5805 5806 5807 5808 5808 5808 5808 5808 5808 5807 5807 5806 5806 5806 5805 5804 5803 5801 5801 5799 5797 5796 5794 5792 5791 5790 5789 5789 5789 5788 5787 5787 5786 5786 5785 5785 5784 5784 5782 5781 5780
5791 5792 5794 5796 5798 5800 5802 5803 5804 5805 5805 5805 5805 5805 5804 5804 5803 5803 5803 5802 5801 5801 5800 5799 5799 5797 5796 5794 5792 5791 5790 5789 5788 5788 5788 5787 5786 5785 5785 5784 5784 5782 5782 5781 5780 5778 5777
5788 5789 5791 5793 5795 5797 5798 5800 5801 5801 5801 5801 5801 5801 5801 5800 5800 5800 5799 5799 5798 5798 5797 5796 5795 5796 5794 5793 5791 5790 5788 5787 5787 5786 5786 5785 5784 5783 5782 5781 5781 5780 5779 5777 5776 5776 5773
5785 5786 5788 5791 5792 5794 5795 5796 5797 5797 5798 5798 5797 5797 5797 5797 5797 5797 5796 5795 5796 5796 5794 5794 5793 5792 5791 5791 5789 5788 5786 5786 5785 5784 5783 5782 5782 5780 5779 5778 5777 5776 5775 5774 5772 5770 5770
5781 5783 5785 5787 5789 5790 5791 5792 5793 5794 5794 5794 5794 5794 5794 5795 5794 5793 5793 5792 5792 5792 5791 5790 5790 5789 5789 5788 5787 5786 5785 5784 5783 5782 5780 5780 5778 5777 5776 5774 5773 5772 5770 5769 5768 5765 5764
5778 5779 5781 5783 5785 5787 5788 5789 5790 5790 5790 5791 5791 5791 5791 5791 5791 5791 5790 5789 5788 5787 5787 5787 5787 5786 5786 5786 5784 5783 5782 5781 5780 5779 5778 5776 5775 5773 5772 5770 5769 5767 5765 5763 5762 5760 5758
5774 5776 5778 5780 5782 5784 5784 5785 5786 5787 5787 5787 5788 5788 5788 5788 5789 5787 5786 5785 5784 5783 5783 5784 5783 5783 5782 5782 5781 5780 5779 5779 5777 5776 5774 5773 5771 5769 5768 5766 5764 5762 5759 5757 5755 5753 5752
5770 5772 5775 5777 5779 5780 5781 5782 5783 5783 5784 5784 5784 5785 5784 5784 5784 5783 5783 5781 5780 5779 5779 5779 5778 5778 5777 5778 5777 5776 5775 5773 5773 5771 5770 5770 5766 5764 5763 5760 5758 5756 5753 5751 5749 5746 5745
5767 5769 5771 5773 5774 5776 5777 5778 5779 5780 5780 5781 5781 5781 5781 5780 5780 5779 5778 5777 5776 5776 5774 5774 5773 5772 5772 5772 5771 5770 5769 5768 5766 5765 5763 5762 5760 5759 5757 5754 5752 5749 5746 5743 5741 5738 5737
5764 5765 5767 5769 5770 5772 5773 5775 5775 5776 5776 5776 5776 5776 5777 5776 5776 5774 5773 5772 5772 5770 5770 5769 5768 5767 5767 5766 5765 5764 5763 5762 5760 5758 5757 5755 5753 5752 5750 5748 5745 5742 5739 5735 5731 5730 5728
5760 5762 5764 5765 5766 5768 5769 5770 5771 5772 5772 5772 5772 5772 5771 5771 5770 5769 5768 5768 5766 5765 5764 5762 5762 5761 5761 5760 5759 5757 5756 5755 5753 5750 5748 5746 5746 5745 5743 5741 5738 5735 5733 5729 5721 5720 5717
5756 5758 5760 5761 5762 5764 5765 5766 5767 5767 5767 5767 5767 5766 5766 5765 5764 5764 5763 5762 5761 5759 5758 5757 5756 5754 5754 5753 5751 5749 5748 5747 5745 5743 5741 5737 5737 5736 5735 5733 5731 5727 5725 5721 5715 5711 5706
5752 5754 5756 5757 5758 5759 5760 5761 5762 5762 5762 5762 5762 5761 5760 5760 5758 5758 5757 5756 5754 5753 5752 5751 5749 5748 5747 5745 5743 5741 5739 5740 5737 5735 5731 5729 5724 5726 5725 5723 5722 5718 5715 5712 5707 5700 5694
5748 5749 5751 5752 5753 5754 5755 5756 5756 5757 5756 5756 5756 5755 5754 5753 5753 5752 5751 5749 5748 5747 5745 5744 5743 5740 5739 5737 5735 5733 5731 5731 5728 5725 5722 5720 5717 5716 5715 5714 5711 5708 5704 5701 5696 5691 5686
5744 5745 5747 5747 5748 5749 5750 5750 5750 5750 5751 5750 5749 5748 5747 5746 5746 5745 5744 5742 5741 5739 5737 5736 5734 5732 5730 5728 5726 5724 5723 5721 5718 5716 5713 5711 5703 5702 5701 5700 5698 5695 5692 5689 5684 5681 5673
5739 5741 5742 5743 5744 5744 5745 5745 5744 5744 5743 5743 5742 5741 5740 5739 5738 5737 5735 5734 5732 5731 5728 5726 5724 5723 5721 5719 5715 5714 5713 5711 5707 5704 5700 5698 5693 5690 5687 5688 5684 5679 5677 5673 5668 5663 5657
5733 5735 5737 5738 5738 5738 5738 5738 5737 5736 5735 5735 5735 5734 5733 5731 5729 5728 5727 5725 5723 5721 5719 5716 5713 5712 5710 5708 5706 5700 5699 5697 5695 5692 5688 5683 5680 5679 5675 5674 5668 5664 5660 5657 5652 5643 5644
5731 5731 5732 5731 5731 5731 5731 5730 5729 5729 5728 5728 5727 5726 5724 5723 5721 5719 5717 5715 5714 5711 5710 5707 5704 5702 5699 5696 5694 5690 5687 5682 5680 5676 5673 5668 5664 5661 5659 5657 5653 5649 5645 5639 5631 5632 5622
5726 5727 5726 5726 5726 5726 5724 5722 5721 5720 5719 5719 5718 5717 5715 5713 5711 5709 5706 5705 5703 5700 5698 5695 5693 5690 5687 5683 5680 5676 5672 5669 5665 5663 5657 5652 5646 5643 5642 5639 5633 5629 5625 5619 5619 5614 5605
5721 5721 5721 5720 5720 5719 5717 5715 5714 5713 5711 5709 5707 5704 5702 5702 5700 5698 5696 5693 5691 5689 5686 5683 5680 5677 5672 5668 5664 5660 5656 5652 5649 5644 5639 5633 5629 5624 5623 5617 5611 5610 5608 5604 5598 5594 5589
5715 5716 5715 5714 5714 5712 5710 5708 5706 5704 5702 5700 5697 5695 5692 5690 5688 5685 5683 5681 5678 5675 5672 5668 5664 5661 5659 5654 5651 5647 5642 5637 5632 5628 5622 5616 5611 5604 5601 5598 5591 5594 5586 5581 5576 5572 5567
5711 5710 5709 5708 5706 5706 5704 5701 5698 5695 5694 5692 5689 5686 5683 5680 5678 5675 5672 5668 5665 5661 5658 5654 5651 5647 5643 5639 5634 5630 5626 5623 5618 5613 5607 5600 5594 5587 5581 5578 5575 5574 5568 5564 5559 5553 5549
5705 5704 5702 5701 5700 5698 5695 5692 5689 5687 5685 5683 5681 5678 5676 5673 5670 5666 5663 5659 5655 5650 5645 5641 5636 5632 5627 5622 5617 5612 5607 5603 5598 5594 5589 5582 5576 5571 5565 5558 5552 5554 5548 5543 5537 5534 5533
5699 5697 5696 5694 5692 5690 5687 5685 5683 5681 5679 5676 5673 5670 5667 5664 5660 5657 5653 5648 5644 5639 5634 5630 5624 5619 5613 5608 5603 5598 5594 5587 5582 5576 5570 5564 5557 5552 5545 5537 5534 5530 5527 5523 5521 5521 5514
5692 5691 5689 5688 5685 5684 5682 5679 5677 5674 5670 5667 5664 5661 5657 5653 5649 5645 5641 5637 5632 5627 5622 5617 5612 5606 5601 5595 5590 5584 5579 5573 5567 5561 5552 5547 5538 5534 5527 5521 5518 5513 5509 5510 5506 5501 5499
5687 5686 5684 5682 5681 5678 5675 5672 5669 5666 5662 5658 5655 5650 5646 5642 5638 5633 5629 5624 5620 5614 5608 5602 5597 5590 5584 5578 5572 5566 5561 5555 5550 5546 5537 5533 5523 5519 5512 5506 5501 5496 5491 5489 5487 5486 5482